| time (UTC) | temp F | wind direction | speed knots | gust knots | rain 1hr in | rain 24hr in | rain mn in | humidity % | barometer mb |
| 20260505114339 | 53 | 191 | 1.7 | 1.7 | 0.00 | 0.00 | 0.00 | 93 | 1013.6 |
| 20260505113836 | 53 | 198 | 1.7 | 2.6 | 0.00 | 0.00 | 0.00 | 93 | 1013.5 |
| 20260505113332 | 53 | 184 | 0.9 | 1.7 | 0.00 | 0.00 | 0.00 | 91 | 1013.4 |
| 20260505112828 | 52 | 185 | 0.9 | 1.7 | 0.00 | 0.00 | 0.00 | 92 | 1013.5 |
| 20260505112326 | 52 | 168 | 0.9 | 2.6 | 0.00 | 0.00 | 0.00 | 90 | 1013.4 |
| 20260505111821 | 52 | 137 | 0.0 | 1.7 | 0.00 | 0.00 | 0.00 | 93 | 1013.5 |
| 20260505111317 | 51 | 196 | 0.9 | 1.7 | 0.00 | 0.00 | 0.00 | 96 | 1013.3 |
| 20260505110813 | 50 | 167 | 1.7 | 1.7 | 0.00 | 0.00 | 0.00 | 97 | 1013.3 |
| 20260505110311 | 49 | 141 | 0.0 | 1.7 | 0.00 | 0.00 | 0.00 | 98 | 1013.4 |
| 20260505101745 | 47 | 234 | 0.0 | 0.0 | 0.00 | 0.00 | 0.00 | 99 | 1013.1 |
| 20260505101241 | 47 | 239 | 0.0 | 0.9 | 0.00 | 0.00 | 0.00 | 99 | 1012.9 |
| 20260505100737 | 48 | 156 | 0.0 | 0.9 | 0.00 | 0.00 | 0.00 | 99 | 1012.9 |
| 20260505100234 | 48 | 198 | 0.9 | 1.7 | 0.00 | 0.00 | 0.00 | 98 | 1012.7 |
| 20260505095729 | 48 | 163 | 0.9 | 1.7 | 0.00 | 0.00 | 0.00 | 98 | 1012.8 |
| 20260505095228 | 49 | 162 | 0.0 | 0.9 | 0.00 | 0.00 | 0.00 | 96 | 1012.7 |
| 20260505094723 | 49 | 163 | 0.9 | 1.7 | 0.00 | 0.00 | 0.00 | 96 | 1012.7 |
| 20260505094220 | 50 | 166 | 1.7 | 2.6 | 0.00 | 0.00 | 0.00 | 97 | 1012.4 |
| 20260505093716 | 49 | 209 | 0.0 | 1.7 | 0.00 | 0.00 | 0.00 | 96 | 1012.3 |
| 20260505093214 | 50 | 191 | 0.0 | 2.6 | 0.00 | 0.00 | 0.00 | 96 | 1012.1 |
| 20260505092710 | 49 | 197 | 1.7 | 1.7 | 0.00 | 0.00 | 0.00 | 96 | 1012.0 |
| 20260505092209 | 49 | 202 | 0.9 | 1.7 | 0.00 | 0.00 | 0.00 | 97 | 1012.2 |
| 20260505091705 | 50 | 179 | 1.7 | 2.6 | 0.00 | 0.00 | 0.00 | 95 | 1012.0 |
| 20260505091204 | 50 | 180 | 0.9 | 0.9 | 0.00 | 0.00 | 0.00 | 95 | 1012.2 |
| 20260505090701 | 49 | 239 | 0.9 | 2.6 | 0.00 | 0.00 | 0.00 | 96 | 1012.2 |
| 20260505090159 | 50 | 181 | 0.9 | 1.7 | 0.00 | 0.00 | 0.00 | 95 | 1012.0 |
| 20260505085656 | 49 | 286 | 0.0 | 2.6 | 0.00 | 0.00 | 0.00 | 93 | 1012.1 |
| 20260505085154 | 49 | 122 | 1.7 | 2.6 | 0.00 | 0.00 | 0.00 | 97 | 1012.1 |
| 20260505084651 | 49 | 147 | 0.0 | 1.7 | 0.00 | 0.00 | 0.00 | 97 | 1012.0 |
| 20260505084150 | 48 | 132 | 0.9 | 1.7 | 0.00 | 0.00 | 0.00 | 98 | 1012.1 |
| 20260505083647 | 49 | 165 | 0.9 | 1.7 | 0.00 | 0.00 | 0.00 | 98 | 1012.2 |
| 20260505083143 | 47 | 304 | 1.7 | 2.6 | 0.00 | 0.00 | 0.00 | 99 | 1012.0 |
| 20260505082639 | 47 | 107 | 0.9 | 1.7 | 0.00 | 0.00 | 0.00 | 99 | 1012.0 |
| 20260505082137 | 47 | 111 | 1.7 | 1.7 | 0.00 | 0.00 | 0.00 | 99 | 1012.0 |
| 20260505081632 | 48 | 244 | 0.9 | 1.7 | 0.00 | 0.00 | 0.00 | 99 | 1011.9 |
| 20260505081130 | 47 | 216 | 0.0 | 0.0 | 0.00 | 0.00 | 0.00 | 99 | 1012.1 |
| 20260505080627 | 47 | 284 | 0.0 | 3.5 | 0.00 | 0.00 | 0.00 | 99 | 1012.1 |
| 20260505080123 | 47 | 208 | 0.0 | 1.7 | 0.00 | 0.00 | 0.00 | 99 | 1012.1 |
| 20260505075619 | 46 | 314 | 0.0 | 0.9 | 0.00 | 0.00 | 0.00 | 99 | 1012.0 |
| 20260505075116 | 47 | 161 | 0.9 | 1.7 | 0.00 | 0.00 | 0.00 | 99 | 1012.0 |
| 20260505074613 | 46 | 277 | 0.0 | 0.0 | 0.00 | 0.00 | 0.00 | 99 | 1011.8 |
| 20260505074110 | 46 | 277 | 0.0 | 0.9 | 0.00 | 0.00 | 0.00 | 99 | 1011.9 |
| 20260505073608 | 47 | 139 | 0.0 | 0.0 | 0.00 | 0.00 | 0.00 | 99 | 1011.9 |
| 20260505073106 | 47 | 140 | 0.0 | 0.0 | 0.00 | 0.00 | 0.00 | 99 | 1011.8 |
| 20260505072601 | 46 | 141 | 0.0 | 0.0 | 0.00 | 0.00 | 0.00 | 99 | 1011.8 |
| 20260505072058 | 47 | 141 | 0.0 | 0.0 | 0.00 | 0.00 | 0.00 | 99 | 1011.8 |
| 20260505071553 | 47 | 141 | 0.0 | 0.0 | 0.00 | 0.00 | 0.00 | 99 | 1011.7 |
| 20260505071051 | 47 | 141 | 0.0 | 0.0 | 0.00 | 0.00 | 0.00 | 99 | 1011.7 |
| 20260505070548 | 47 | 141 | 0.0 | 0.0 | 0.00 | 0.00 | 0.00 | 99 | 1011.9 |
| 20260505070044 | 47 | 141 | 0.0 | 0.0 | 0.00 | 0.00 | 0.00 | 99 | 1011.8 |
| 20260505065540 | 47 | 141 | 0.0 | 0.0 | 0.00 | 0.00 | 0.00 | 99 | 1011.8 |
| 20260505065037 | 47 | 141 | 0.0 | 0.0 | 0.00 | 0.00 | 0.00 | 99 | 1011.8 |
| 20260505064534 | 48 | 141 | 0.0 | 0.0 | 0.00 | 0.00 | 0.00 | 99 | 1012.0 |
| 20260505064032 | 48 | 141 | 0.0 | 0.0 | 0.00 | 0.00 | 0.00 | 99 | 1011.9 |
| 20260505063529 | 48 | 141 | 0.0 | 0.0 | 0.00 | 0.00 | 0.00 | 99 | 1011.9 |
| 20260505063025 | 48 | 141 | 0.0 | 0.0 | 0.00 | 0.00 | 0.00 | 99 | 1011.8 |
| 20260505062522 | 48 | 141 | 0.0 | 0.0 | 0.00 | 0.00 | 0.00 | 99 | 1011.8 |
| 20260505062019 | 49 | 141 | 0.0 | 0.0 | 0.00 | 0.00 | 0.00 | 99 | 1012.0 |
| 20260505061517 | 48 | 141 | 0.0 | 0.0 | 0.00 | 0.00 | 0.00 | 99 | 1012.1 |
| 20260505061015 | 48 | 141 | 0.0 | 0.0 | 0.00 | 0.00 | 0.00 | 99 | 1012.1 |
| 20260505060512 | 49 | 141 | 0.0 | 0.0 | 0.00 | 0.00 | 0.00 | 99 | 1011.9 |
| 20260505060008 | 49 | 141 | 0.0 | 0.0 | 0.00 | 0.00 | 0.00 | 99 | 1011.9 |
| 20260505055504 | 49 | 141 | 0.0 | 0.0 | 0.00 | 0.00 | 0.00 | 99 | 1012.0 |
| 20260505055000 | 49 | 141 | 0.0 | 0.0 | 0.00 | 0.00 | 0.00 | 99 | 1011.9 |
| 20260505054458 | 49 | 141 | 0.0 | 0.0 | 0.00 | 0.00 | 0.00 | 99 | 1011.9 |
| 20260505053956 | 49 | 141 | 0.0 | 0.0 | 0.00 | 0.00 | 0.00 | 99 | 1011.9 |
| 20260505053453 | 49 | 141 | 0.0 | 0.0 | 0.00 | 0.00 | 0.00 | 99 | 1011.9 |
| 20260505052949 | 50 | 141 | 0.0 | 0.0 | 0.00 | 0.00 | 0.00 | 99 | 1012.0 |
| 20260505052447 | 49 | 141 | 0.0 | 0.0 | 0.00 | 0.00 | 0.00 | 99 | 1011.9 |
| 20260505051943 | 50 | 141 | 0.0 | 0.0 | 0.00 | 0.00 | 0.00 | 99 | 1012.0 |
| 20260505051440 | 50 | 140 | 0.0 | 0.0 | 0.00 | 0.00 | 0.00 | 99 | 1012.0 |
| 20260505050939 | 50 | 140 | 0.0 | 0.0 | 0.00 | 0.00 | 0.00 | 99 | 1011.9 |
| 20260505050437 | 50 | 140 | 0.0 | 0.0 | 0.00 | 0.00 | 0.00 | 99 | 1011.9 |
| 20260505041404 | 51 | 140 | 0.0 | 0.0 | 0.00 | 0.00 | 0.00 | 99 | 1011.4 |
| 20260505040901 | 51 | 140 | 0.0 | 0.0 | 0.00 | 0.00 | 0.00 | 99 | 1011.2 |
| 20260505040359 | 51 | 143 | 0.0 | 0.0 | 0.00 | 0.00 | 0.00 | 99 | 1011.0 |
| 20260505035855 | 51 | 144 | 0.0 | 0.0 | 0.00 | 0.00 | 0.00 | 99 | 1011.1 |
| 20260505035351 | 51 | 144 | 0.0 | 0.0 | 0.00 | 0.00 | 0.00 | 99 | 1011.1 |
| 20260505034849 | 51 | 144 | 0.0 | 0.0 | 0.00 | 0.00 | 0.00 | 99 | 1011.1 |
| 20260505034345 | 51 | 144 | 0.0 | 0.0 | 0.00 | 0.00 | 0.00 | 99 | 1011.1 |
| 20260505033842 | 51 | 144 | 0.0 | 0.0 | 0.00 | 0.00 | 0.00 | 99 | 1011.1 |
| 20260505033339 | 51 | 144 | 0.0 | 0.0 | 0.00 | 0.00 | 0.00 | 99 | 1011.1 |
| 20260505032837 | 51 | 144 | 0.0 | 0.0 | 0.00 | 0.00 | 0.00 | 99 | 1011.2 |
| 20260505032334 | 51 | 144 | 0.0 | 0.0 | 0.00 | 0.00 | 0.00 | 99 | 1011.2 |
| 20260505031831 | 51 | 144 | 0.0 | 0.0 | 0.00 | 0.00 | 0.00 | 99 | 1011.0 |
| 20260505031327 | 51 | 144 | 0.0 | 0.0 | 0.00 | 0.00 | 0.00 | 99 | 1011.1 |
| 20260505030825 | 51 | 144 | 0.0 | 0.0 | 0.00 | 0.00 | 0.00 | 99 | 1011.2 |
| 20260505030320 | 52 | 144 | 0.0 | 0.0 | 0.00 | 0.00 | 0.00 | 99 | 1011.1 |
| 20260505025816 | 52 | 144 | 0.0 | 0.0 | 0.00 | 0.00 | 0.00 | 99 | 1011.0 |
| 20260505025314 | 52 | 144 | 0.0 | 0.0 | 0.00 | 0.00 | 0.00 | 98 | 1011.2 |
| 20260505024812 | 52 | 144 | 0.0 | 0.0 | 0.00 | 0.00 | 0.00 | 98 | 1011.1 |
| 20260505024309 | 52 | 144 | 0.0 | 0.0 | 0.00 | 0.00 | 0.00 | 98 | 1011.0 |
| 20260505023807 | 53 | 144 | 0.0 | 0.0 | 0.00 | 0.00 | 0.00 | 98 | 1011.2 |
| 20260505023303 | 53 | 144 | 0.0 | 0.0 | 0.00 | 0.00 | 0.00 | 97 | 1011.1 |
| 20260505022801 | 53 | 144 | 0.0 | 0.0 | 0.00 | 0.00 | 0.00 | 97 | 1011.0 |
| 20260505022258 | 53 | 144 | 0.0 | 0.0 | 0.00 | 0.00 | 0.00 | 97 | 1011.0 |
| 20260505021754 | 53 | 144 | 0.0 | 0.0 | 0.00 | 0.00 | 0.00 | 96 | 1011.0 |
| 20260505021251 | 54 | 144 | 0.0 | 0.0 | 0.00 | 0.00 | 0.00 | 96 | 1010.8 |
| 20260505020747 | 54 | 144 | 0.0 | 0.0 | 0.00 | 0.00 | 0.00 | 95 | 1011.1 |
| 20260505020242 | 54 | 144 | 0.0 | 0.0 | 0.00 | 0.00 | 0.00 | 95 | 1011.0 |
| 20260505015740 | 55 | 144 | 0.0 | 0.0 | 0.00 | 0.00 | 0.00 | 95 | 1011.3 |
| 20260505015237 | 55 | 144 | 0.0 | 0.0 | 0.00 | 0.00 | 0.00 | 94 | 1010.9 |
| 20260505014734 | 56 | 144 | 0.0 | 0.0 | 0.00 | 0.00 | 0.00 | 94 | 1010.9 |
| 20260505014231 | 56 | 144 | 0.0 | 0.0 | 0.00 | 0.00 | 0.00 | 93 | 1010.8 |
| 20260505013727 | 56 | 144 | 0.0 | 0.0 | 0.00 | 0.00 | 0.00 | 93 | 1010.8 |
| 20260505013225 | 56 | 144 | 0.0 | 0.0 | 0.00 | 0.00 | 0.00 | 92 | 1010.7 |
| 20260505012723 | 56 | 144 | 0.0 | 0.0 | 0.00 | 0.00 | 0.00 | 92 | 1010.9 |
| 20260505012220 | 57 | 144 | 0.0 | 0.0 | 0.00 | 0.00 | 0.00 | 91 | 1010.8 |
| 20260505011715 | 57 | 144 | 0.0 | 0.0 | 0.00 | 0.00 | 0.00 | 90 | 1010.8 |
| 20260505011213 | 58 | 140 | 0.0 | 0.0 | 0.00 | 0.00 | 0.00 | 90 | 1010.9 |
| 20260505010708 | 58 | 140 | 0.0 | 0.0 | 0.00 | 0.00 | 0.00 | 88 | 1010.9 |
| 20260505010205 | 59 | 140 | 0.0 | 0.0 | 0.00 | 0.00 | 0.00 | 88 | 1010.9 |
| 20260505005701 | 59 | 140 | 0.0 | 0.0 | 0.00 | 0.00 | 0.00 | 88 | 1010.9 |
| 20260505005159 | 59 | 140 | 0.0 | 0.0 | 0.00 | 0.00 | 0.00 | 87 | 1010.8 |
| 20260505004655 | 59 | 155 | 0.0 | 0.0 | 0.00 | 0.00 | 0.00 | 88 | 1010.8 |
| 20260505004152 | 59 | 220 | 0.0 | 0.0 | 0.00 | 0.00 | 0.00 | 88 | 1010.6 |
| 20260505003649 | 60 | 220 | 0.0 | 0.0 | 0.00 | 0.00 | 0.00 | 86 | 1010.4 |
| 20260505003147 | 60 | 220 | 0.0 | 0.0 | 0.00 | 0.00 | 0.00 | 85 | 1010.6 |
| 20260505002643 | 61 | 220 | 0.0 | 0.0 | 0.00 | 0.00 | 0.00 | 85 | 1010.7 |
| 20260505002141 | 62 | 220 | 0.0 | 0.0 | 0.00 | 0.00 | 0.00 | 84 | 1010.8 |
| 20260505001638 | 63 | 220 | 0.0 | 0.0 | 0.00 | 0.00 | 0.00 | 79 | 1011.0 |
| 20260505001135 | 64 | 220 | 0.0 | 0.0 | 0.00 | 0.00 | 0.00 | 78 | 1011.0 |
| 20260505000632 | 65 | 220 | 0.0 | 0.0 | 0.00 | 0.00 | 0.00 | 76 | 1011.0 |
| 20260505000131 | 66 | 220 | 0.0 | 0.0 | 0.00 | 0.00 | 0.00 | 73 | 1011.0 |
| 20260504235626 | 67 | 220 | 0.0 | 0.0 | 0.00 | 0.00 | 0.00 | 71 | 1010.9 |
| 20260504235123 | 68 | 220 | 0.0 | 0.0 | 0.00 | 0.00 | 0.00 | 68 | 1010.8 |
| 20260504234620 | 69 | 221 | 0.9 | 1.7 | 0.00 | 0.00 | 0.00 | 63 | 1010.9 |
| 20260504234118 | 70 | 213 | 0.0 | 0.9 | 0.00 | 0.00 | 0.00 | 63 | 1010.7 |
| 20260504233613 | 71 | 214 | 0.9 | 1.7 | 0.00 | 0.00 | 0.00 | 61 | 1010.7 |
| 20260504233109 | 73 | 242 | 0.9 | 0.9 | 0.00 | 0.00 | 0.00 | 53 | 1011.0 |
| 20260504232607 | 74 | 247 | 0.0 | 0.9 | 0.00 | 0.00 | 0.00 | 55 | 1011.0 |
| 20260504232104 | 73 | 253 | 0.9 | 1.7 | 0.00 | 0.00 | 0.00 | 50 | 1011.0 |
| 20260504231600 | 74 | 234 | 0.9 | 1.7 | 0.00 | 0.00 | 0.00 | 51 | 1011.0 |
| 20260504231056 | 74 | 295 | 0.9 | 0.9 | 0.00 | 0.00 | 0.00 | 52 | 1011.0 |
| 20260504230553 | 73 | 296 | 0.0 | 0.9 | 0.00 | 0.00 | 0.00 | 51 | 1011.1 |
| 20260504230052 | 75 | 287 | 0.0 | 1.7 | 0.00 | 0.00 | 0.00 | 49 | 1011.3 |
| 20260504225549 | 75 | 241 | 0.0 | 0.9 | 0.00 | 0.00 | 0.00 | 50 | 1011.2 |
| 20260504225046 | 76 | 220 | 0.0 | 0.9 | 0.00 | 0.00 | 0.00 | 47 | 1011.4 |
| 20260504224542 | 75 | 228 | 0.9 | 1.7 | 0.00 | 0.00 | 0.00 | 47 | 1011.3 |
| 20260504224040 | 75 | 240 | 0.9 | 3.5 | 0.00 | 0.00 | 0.00 | 47 | 1011.4 |
| 20260504223537 | 76 | 286 | 1.7 | 2.6 | 0.00 | 0.00 | 0.00 | 47 | 1011.3 |
| 20260504223032 | 75 | 346 | 2.6 | 5.2 | 0.00 | 0.00 | 0.00 | 47 | 1011.3 |
| 20260504222529 | 74 | 305 | 0.9 | 3.5 | 0.00 | 0.00 | 0.00 | 48 | 1011.3 |
| 20260504222027 | 74 | 326 | 0.0 | 5.2 | 0.00 | 0.00 | 0.00 | 49 | 1011.4 |
| 20260504221524 | 74 | 198 | 3.5 | 5.2 | 0.00 | 0.00 | 0.00 | 49 | 1011.4 |
| 20260504221020 | 74 | 212 | 0.9 | 3.5 | 0.00 | 0.00 | 0.00 | 50 | 1011.4 |
| 20260504220517 | 73 | 205 | 5.2 | 11.3 | 0.00 | 0.00 | 0.00 | 49 | 1011.5 |
| 20260504220014 | 74 | 199 | 6.1 | 7.0 | 0.00 | 0.00 | 0.00 | 51 | 1011.5 |
| 20260504215510 | 73 | 175 | 0.0 | 6.1 | 0.00 | 0.00 | 0.00 | 51 | 1011.5 |
| 20260504215008 | 74 | 222 | 2.6 | 3.5 | 0.00 | 0.00 | 0.00 | 51 | 1011.7 |
| 20260504214504 | 72 | 146 | 2.6 | 7.0 | 0.00 | 0.00 | 0.00 | 51 | 1011.7 |
| 20260504214000 | 72 | 242 | 1.7 | 7.0 | 0.00 | 0.00 | 0.00 | 54 | 1011.6 |
| 20260504213456 | 71 | 234 | 4.3 | 7.8 | 0.00 | 0.00 | 0.00 | 51 | 1011.7 |
| 20260504212954 | 72 | 205 | 3.5 | 6.1 | 0.00 | 0.00 | 0.00 | 53 | 1011.7 |
| 20260504212449 | 73 | 59 | 0.0 | 7.0 | 0.00 | 0.00 | 0.00 | 51 | 1011.7 |
| 20260504211948 | 72 | 314 | 4.3 | 8.7 | 0.00 | 0.00 | 0.00 | 51 | 1011.7 |
| 20260504211443 | 72 | 205 | 7.8 | 13.0 | 0.00 | 0.00 | 0.00 | 51 | 1011.6 |
| 20260504210942 | 72 | 298 | 7.0 | 11.3 | 0.00 | 0.00 | 0.00 | 51 | 1011.6 |
| 20260504210438 | 72 | 280 | 3.5 | 7.8 | 0.00 | 0.00 | 0.00 | 51 | 1011.6 |
| 20260504205935 | 71 | 266 | 5.2 | 7.0 | 0.00 | 0.00 | 0.00 | 53 | 1011.4 |
| 20260504205432 | 73 | 200 | 4.3 | 9.6 | 0.00 | 0.00 | 0.00 | 54 | 1011.3 |
| 20260504204931 | 72 | 218 | 7.0 | 11.3 | 0.00 | 0.00 | 0.00 | 51 | 1011.3 |
| 20260504204429 | 72 | 206 | 2.6 | 6.1 | 0.00 | 0.00 | 0.00 | 53 | 1011.5 |
| 20260504203928 | 70 | 202 | 3.5 | 6.1 | 0.00 | 0.00 | 0.00 | 54 | 1011.5 |
| 20260504203425 | 69 | 320 | 5.2 | 8.7 | 0.00 | 0.00 | 0.00 | 54 | 1011.7 |
| 20260504202920 | 69 | 222 | 0.9 | 2.6 | 0.00 | 0.00 | 0.00 | 55 | 1011.7 |
| 20260504202417 | 69 | 221 | 2.6 | 8.7 | 0.00 | 0.00 | 0.00 | 55 | 1011.3 |
| 20260504201914 | 70 | 217 | 4.3 | 12.2 | 0.00 | 0.00 | 0.00 | 52 | 1011.5 |
| 20260504201412 | 71 | 215 | 2.6 | 7.8 | 0.00 | 0.00 | 0.00 | 52 | 1011.6 |
| 20260504200909 | 71 | 6 | 3.5 | 11.3 | 0.00 | 0.00 | 0.00 | 49 | 1011.9 |
| 20260504200405 | 72 | 229 | 1.7 | 12.2 | 0.00 | 0.00 | 0.00 | 49 | 1012.0 |
| 20260504195902 | 72 | 0 | 4.3 | 12.2 | 0.00 | 0.00 | 0.00 | 48 | 1012.2 |
| 20260504195358 | 72 | 310 | 7.8 | 8.7 | 0.00 | 0.00 | 0.00 | 48 | 1012.0 |
| 20260504194855 | 72 | 278 | 8.7 | 12.2 | 0.00 | 0.00 | 0.00 | 48 | 1011.9 |
| 20260504194350 | 74 | 339 | 8.7 | 13.0 | 0.00 | 0.00 | 0.00 | 46 | 1011.9 |
| 20260504193847 | 74 | 168 | 5.2 | 14.8 | 0.00 | 0.00 | 0.00 | 46 | 1011.6 |
| 20260504193344 | 73 | 219 | 4.3 | 8.7 | 0.00 | 0.00 | 0.00 | 48 | 1012.0 |
| 20260504192843 | 73 | 250 | 7.0 | 14.8 | 0.00 | 0.00 | 0.00 | 47 | 1011.9 |
| 20260504192340 | 75 | 308 | 5.2 | 11.3 | 0.00 | 0.00 | 0.00 | 45 | 1012.1 |
| 20260504191838 | 73 | 309 | 1.7 | 7.8 | 0.00 | 0.00 | 0.00 | 49 | 1012.0 |
| 20260504191336 | 73 | 17 | 2.6 | 7.0 | 0.00 | 0.00 | 0.00 | 50 | 1012.1 |
| 20260504190831 | 73 | 25 | 6.1 | 8.7 | 0.00 | 0.00 | 0.00 | 46 | 1012.6 |
| 20260504190327 | 72 | 238 | 5.2 | 9.6 | 0.00 | 0.00 | 0.00 | 47 | 1012.4 |
| 20260504185824 | 72 | 277 | 1.7 | 6.1 | 0.00 | 0.00 | 0.00 | 48 | 1012.3 |
| 20260504185321 | 72 | 306 | 4.3 | 6.1 | 0.00 | 0.00 | 0.00 | 50 | 1012.6 |
| 20260504184817 | 72 | 212 | 3.5 | 7.0 | 0.00 | 0.00 | 0.00 | 51 | 1012.3 |
| 20260504184313 | 73 | 213 | 6.1 | 8.7 | 0.00 | 0.00 | 0.00 | 49 | 1012.6 |
| 20260504183809 | 72 | 308 | 2.6 | 12.2 | 0.00 | 0.00 | 0.00 | 50 | 1012.8 |
| 20260504183306 | 72 | 27 | 1.7 | 7.8 | 0.00 | 0.00 | 0.00 | 52 | 1013.0 |
| 20260504182804 | 71 | 311 | 5.2 | 9.6 | 0.00 | 0.00 | 0.00 | 54 | 1012.8 |
| 20260504182301 | 71 | 298 | 6.1 | 8.7 | 0.00 | 0.00 | 0.00 | 49 | 1012.4 |
| 20260504181759 | 71 | 258 | 2.6 | 5.2 | 0.00 | 0.00 | 0.00 | 53 | 1012.6 |
| 20260504181255 | 70 | 221 | 7.8 | 11.3 | 0.00 | 0.00 | 0.00 | 51 | 1012.6 |
| 20260504180755 | 69 | 244 | 1.7 | 12.2 | 0.00 | 0.00 | 0.00 | 54 | 1012.3 |
| 20260504180253 | 70 | 256 | 5.2 | 7.8 | 0.00 | 0.00 | 0.00 | 52 | 1012.3 |
| 20260504175750 | 70 | 237 | 2.6 | 6.1 | 0.00 | 0.00 | 0.00 | 51 | 1012.4 |
| 20260504175247 | 70 | 242 | 5.2 | 12.2 | 0.00 | 0.00 | 0.00 | 52 | 1012.7 |
| 20260504174745 | 69 | 204 | 1.7 | 2.6 | 0.00 | 0.00 | 0.00 | 55 | 1012.8 |
| 20260504174243 | 68 | 218 | 4.3 | 9.6 | 0.00 | 0.00 | 0.00 | 55 | 1013.1 |
| 20260504173739 | 69 | 285 | 9.6 | 12.2 | 0.00 | 0.00 | 0.00 | 53 | 1012.9 |
| 20260504173236 | 69 | 222 | 0.9 | 3.5 | 0.00 | 0.00 | 0.00 | 56 | 1013.1 |
| 20260504172733 | 69 | 254 | 5.2 | 11.3 | 0.00 | 0.00 | 0.00 | 59 | 1013.3 |
| 20260504172229 | 67 | 265 | 6.1 | 13.0 | 0.00 | 0.00 | 0.00 | 59 | 1013.3 |
| 20260504171725 | 67 | 241 | 9.6 | 12.2 | 0.00 | 0.00 | 0.00 | 59 | 1013.5 |
| 20260504171222 | 66 | 230 | 4.3 | 11.3 | 0.00 | 0.00 | 0.00 | 59 | 1013.5 |
| 20260504170719 | 65 | 255 | 9.6 | 13.9 | 0.00 | 0.00 | 0.00 | 60 | 1013.8 |
| 20260504170217 | 66 | 182 | 9.6 | 13.9 | 0.00 | 0.00 | 0.00 | 60 | 1013.7 |
| 20260504160135 | 62 | 253 | 7.8 | 8.7 | 0.00 | 0.00 | 0.00 | 63 | 1014.8 |
| 20260504151102 | 60 | 208 | 3.5 | 12.2 | 0.00 | 0.00 | 0.00 | 65 | 1015.3 |
| 20260504150600 | 60 | 306 | 1.7 | 8.7 | 0.00 | 0.00 | 0.00 | 62 | 1015.5 |
| 20260504141026 | 60 | 204 | 2.6 | 3.5 | 0.00 | 0.00 | 0.00 | 59 | 1015.5 |
| 20260504140522 | 60 | 173 | 1.7 | 2.6 | 0.00 | 0.00 | 0.00 | 61 | 1015.5 |
| 20260504130447 | 57 | 186 | 4.3 | 9.6 | 0.00 | 0.00 | 0.00 | 61 | 1015.3 |